Terminal Aerodrome Forecast
Issued by NWS Milwaukee/Sullivan, WI

Home | Current Version | Previous Version | Text Only | Print | Product List | Glossary On
Versions: 1 2 3 4 5 6 7 8 9 10 11 12 13 14 15 16 17 18 19 20 21 22 23 24 25 26 27 28 29 30 31 32 33 34 35 36 37 38 39 40 41 42 43 44 45 46 47 48 49 50
000
FTUS43 KMKX 211501 AAC
TAFMSN
TAF AMD
KMSN 211501Z 2115/2212 17013KT 2SM BR OVC006
      TEMPO 2116/2118 3SM -SN
     FM211800 17011G19KT 4SM BR OVC008
      TEMPO 2118/2120 -RASN
     FM220100 17010G17KT 6SM BR OVC010
     FM221000 16011KT P6SM OVC015
     FM221100 15011KT P6SM OVC015=

USA.gov is the U.S. government's official web portal to all federal, state and local government web resources and services.